Location: Kott?ru
(16.6209°N, 80.6208°E)
Time: 04:23:07
(UTC+00:00)

XW-2C - Visible Passes

Search period start: 21 April 2024 00:00
Search period end: 01 May 2024 00:00
Orbit: 442 x 457 km, 97.5° (Epoch: 20 April)

Date Brightness Start Highest point End Pass type
(mag) Time Alt. Az. Time Alt. Az. Time Alt. Az.
21 Apr ? 13:19:12 10° SSW 13:22:20 34° W 13:25:28 10° NNW visible
23 Apr ? 13:43:01 10° SW 13:45:03 15° W 13:47:04 10° WNW visible
26 Apr ? 13:29:28 10° SSW 13:32:16 24° W 13:35:04 10° NW visible
28 Apr ? 13:53:29 10° WSW 13:54:22 11° W 13:55:14 10° W visible
29 Apr ? 13:15:45 10° S 13:18:57 41° W 13:22:10 10° NNW visible
